Weather History for Wiscasset, ME

Change the Weather History Date:

Monday, March 11, 2013

  Actual Average Record
Temperature  
Mean Temperature 40 °F -  
Max Temperature 44 °F 35 °F 53 °F (2006)
Min Temperature 36 °F 19 °F -4 °F (2005)
Degree Days  
Heating Degree Days 26    
Moisture  
Dew Point 34 °F    
Average Humidity 79    
Maximum Humidity 87    
Minimum Humidity 68    
Precipitation  
Precipitation 0.00 in - - ()
Sea Level Pressure  
Sea Level Pressure 30.23 in    
Wind  
Wind Speed 6 mph (SSW)    
Max Wind Speed 10 mph    
Max Gust Speed 16 mph    
Visibility 10 miles    
Events      
Averages and records for this station are not official NWS values.
T = Trace of Precipitation, MM = Missing Value Source: NWS Daily Summary

Daily Weather History Graph

Daily Weather History Graph

Search for Another Location

Airport:

Trip Planner

Search our weather history database for the weather conditions in past years. The results will help you decide how hot, cold, wet, or windy it might be!

Date:

Astronomy

Mar. 11, 2013 Rise Set
Actual Time 6:57 AM EDT 6:40 PM EDT
Civil Twilight 6:29 AM EDT 7:09 PM EDT
Nautical Twilight 5:55 AM EDT 7:42 PM EDT
Astronomical Twilight 5:22 AM EDT 8:16 PM EDT
Moon 6:29 AM EDT (3/11) 6:50 PM EDT (3/11)
Length of Visible Light 12h 39m
Length of Day
11h 42m
Waning Crescent, 0% of the Moon is Illuminated
Mar 11
Waning Crescent
Mar 11
New
Mar 19
First Quarter
Mar 27
Full
Apr 3
Last Quarter

Hourly Weather History & Observations

Time (EDT) Temp. Windchill Dew Point Humidity Pressure Visibility Wind Dir Wind Speed Gust Speed Precip Events Conditions
12:53 AM 36.0 °F - 30.0 °F 79% 30.32 in 10.0 mi Calm Calm - N/A   Overcast
1:53 AM 36.0 °F 32.1 °F 30.0 °F 79% 30.32 in 10.0 mi SSW 4.6 mph - N/A   Overcast
2:48 AM 37.4 °F 33.8 °F 30.2 °F 75% 30.31 in 10.0 mi Variable 4.6 mph - N/A   Overcast
2:53 AM 37.0 °F 33.3 °F 30.9 °F 79% 30.30 in 10.0 mi SSW 4.6 mph - N/A   Overcast
3:53 AM 37.0 °F 34.5 °F 30.9 °F 79% 30.27 in 10.0 mi South 3.5 mph - N/A   Overcast
4:53 AM 37.0 °F 33.3 °F 32.0 °F 82% 30.25 in 10.0 mi South 4.6 mph - N/A   Overcast
5:53 AM 37.0 °F 31.6 °F 32.0 °F 82% 30.25 in 10.0 mi SSW 6.9 mph - N/A   Overcast
6:53 AM 37.0 °F 31.6 °F 32.0 °F 82% 30.25 in 10.0 mi SW 6.9 mph - N/A   Overcast
7:53 AM 37.0 °F 31.6 °F 32.0 °F 82% 30.26 in 9.0 mi SSW 6.9 mph - N/A   Overcast
8:17 AM 37.4 °F 32.1 °F 32.0 °F 81% 30.25 in 6.0 mi SSW 6.9 mph - N/A   Haze
8:53 AM 37.0 °F 31.0 °F 33.1 °F 86% 30.27 in 6.0 mi SSW 8.1 mph - N/A   Overcast
9:53 AM 37.9 °F 32.1 °F 33.1 °F 83% 30.27 in 9.0 mi SSW 8.1 mph - N/A   Overcast
10:53 AM 41.0 °F 35.2 °F 33.1 °F 73% 30.26 in 10.0 mi South 9.2 mph - N/A   Mostly Cloudy
11:24 AM 41.0 °F 34.7 °F 33.8 °F 76% 30.26 in 10.0 mi SSW 10.4 mph - N/A   Scattered Clouds
11:53 AM 41.0 °F 36.4 °F 32.0 °F 70% 30.25 in 10.0 mi SW 6.9 mph - N/A   Partly Cloudy
12:53 PM 41.0 °F 34.7 °F 33.1 °F 73% 30.24 in 10.0 mi SSW 10.4 mph - N/A   Scattered Clouds
1:06 PM 41.0 °F 34.7 °F 33.8 °F 76% 30.24 in 10.0 mi SSW 10.4 mph 16.1 mph N/A   Mostly Cloudy
1:27 PM 41.0 °F 34.7 °F 33.8 °F 76% 30.24 in 10.0 mi SW 10.4 mph 16.1 mph N/A   Scattered Clouds
1:53 PM 42.1 °F 36.1 °F 33.1 °F 70% 30.23 in 9.0 mi SW 10.4 mph - N/A   Partly Cloudy
2:53 PM 43.0 °F 38.2 °F 33.1 °F 68% 30.22 in 10.0 mi South 8.1 mph - N/A   Partly Cloudy
3:53 PM 42.1 °F 37.7 °F 34.0 °F 73% 30.21 in 10.0 mi SSE 6.9 mph - N/A   Partly Cloudy
4:12 PM 42.8 °F 38.6 °F 33.8 °F 70% 30.20 in 10.0 mi South 6.9 mph - N/A   Mostly Cloudy
4:53 PM 42.1 °F 36.6 °F 35.1 °F 76% 30.20 in 10.0 mi South 9.2 mph - N/A   Overcast
5:50 PM 41.0 °F 37.1 °F 35.6 °F 81% 30.19 in 10.0 mi South 5.8 mph - N/A   Scattered Clouds
5:53 PM 41.0 °F 37.1 °F 36.0 °F 82% 30.19 in 10.0 mi South 5.8 mph - N/A   Scattered Clouds
6:53 PM 41.0 °F 38.0 °F 36.0 °F 82% 30.19 in 10.0 mi South 4.6 mph - N/A   Scattered Clouds
7:01 PM 41.0 °F 37.1 °F 35.6 °F 81% 30.19 in 10.0 mi South 5.8 mph - N/A   Mostly Cloudy
7:44 PM 41.0 °F 36.4 °F 37.4 °F 87% 30.19 in 10.0 mi South 6.9 mph - N/A   Scattered Clouds
7:53 PM 41.0 °F 38.0 °F 37.0 °F 86% 30.19 in 10.0 mi South 4.6 mph - N/A   Partly Cloudy
8:53 PM 42.1 °F 38.4 °F 37.9 °F 85% 30.19 in 10.0 mi South 5.8 mph - N/A   Scattered Clouds
9:53 PM 42.1 °F 38.4 °F 37.9 °F 85% 30.18 in 10.0 mi South 5.8 mph - N/A   Clear
10:13 PM 42.8 °F 39.3 °F 37.4 °F 81% 30.18 in 10.0 mi South 5.8 mph - N/A   Scattered Clouds
10:25 PM 42.8 °F 40.1 °F 37.4 °F 81% 30.18 in 10.0 mi South 4.6 mph - N/A   Mostly Cloudy
10:53 PM 42.1 °F 38.4 °F 37.9 °F 85% 30.17 in 10.0 mi South 5.8 mph - N/A   Scattered Clouds
11:08 PM 42.8 °F 40.1 °F 37.4 °F 81% 30.18 in 10.0 mi South 4.6 mph - N/A   Mostly Cloudy
11:53 PM 42.1 °F 38.4 °F 37.9 °F 85% 30.18 in 10.0 mi SSW 5.8 mph - N/A   Overcast